FW2998 Weather Reports


time (UTC)temp
F
wind
direction
speed
knots
gust
knots
rain 1hr
in
rain 24hr
in
rain mn
in
humidity
%
barometer
mb
20260831231030 90 0 0.0 0.0 0.00 0.00 0.00 59 1018.0
20260831230524 91 0 0.0 0.0 0.00 0.00 0.00 59 1018.1
20260831230044 91 0 0.0 0.0 0.00 0.00 0.00 58 1018.2
20260831225522 92 0 0.0 0.0 0.00 0.00 0.00 58 1018.2
20260831225024 92 0 0.0 0.0 0.00 0.00 0.00 57 1018.2
20260831224542 92 0 0.0 0.0 0.00 0.00 0.00 56 1018.1
20260831224028 93 0 0.0 0.0 0.00 0.00 0.00 56 1018.2
20260831223524 93 0 0.0 0.0 0.00 0.00 0.00 55 1018.1
20260831223053 94 0 0.0 0.0 0.00 0.00 0.00 55 1018.2
20260831222526 94 0 0.0 0.0 0.00 0.00 0.00 56 1018.1
20260831222024 94 0 0.0 0.0 0.00 0.00 0.00 54 1018.1
20260831221543 94 0 0.0 0.0 0.00 0.00 0.00 53 1018.2
20260831221025 94 0 0.0 0.0 0.00 0.00 0.00 55 1018.2
20260831220525 94 0 0.0 0.0 0.00 0.00 0.00 53 1018.2
20260831220046 95 0 0.0 0.0 0.00 0.00 0.00 54 1018.2
20260831215527 95 0 0.0 0.0 0.00 0.00 0.00 53 1018.1
20260831215024 95 0 0.0 0.0 0.00 0.00 0.00 51 1018.2
20260831214557 95 0 0.0 0.0 0.00 0.00 0.00 51 1018.2
20260831214023 96 0 0.0 0.0 0.00 0.00 0.00 50 1018.3
20260831213525 96 0 0.0 0.0 0.00 0.00 0.00 49 1018.3
20260831213043 96 0 0.0 0.0 0.00 0.00 0.00 51 1018.2
20260831212524 96 0 0.0 0.0 0.00 0.00 0.00 51 1018.2
20260831212023 96 0 0.0 0.0 0.00 0.00 0.00 51 1018.0
20260831211546 95 0 0.0 0.0 0.00 0.00 0.00 51 1018.1
20260831211024 95 0 0.0 0.0 0.00 0.00 0.00 51 1018.1
20260831210525 95 0 0.0 0.0 0.00 0.00 0.00 51 1018.1
20260831210041 94 0 0.0 0.0 0.00 0.00 0.00 52 1018.2
20260831205523 94 0 0.0 0.0 0.00 0.00 0.00 52 1018.1
20260831205023 94 0 0.0 0.0 0.00 0.00 0.00 54 1018.2
20260831204543 94 0 0.0 0.0 0.00 0.00 0.00 53 1018.3
20260831204023 94 0 0.0 0.0 0.00 0.00 0.00 51 1018.3
20260831203522 95 0 0.0 0.0 0.00 0.00 0.00 51 1018.4
20260831203041 95 0 0.0 0.0 0.00 0.00 0.00 53 1018.4
20260831202524 95 0 0.0 0.0 0.00 0.00 0.00 54 1018.5
20260831202023 95 0 0.0 0.0 0.00 0.00 0.00 52 1018.5
20260831201546 95 0 0.0 0.0 0.00 0.00 0.00 51 1018.5
20260831201038 95 0 0.0 0.0 0.00 0.00 0.00 53 1018.7
20260831200524 94 0 0.0 0.0 0.00 0.00 0.00 53 1018.6
20260831200044 93 0 0.0 0.0 0.00 0.00 0.00 56 1018.7
20260831195521 93 0 0.0 0.0 0.00 0.00 0.00 59 1018.8
20260831195024 92 0 0.0 0.0 0.00 0.00 0.00 59 1018.9
20260831194545 92 0 0.0 0.0 0.00 0.00 0.00 58 1019.0
20260831194024 92 0 0.0 0.0 0.00 0.00 0.00 62 1019.0
20260831193525 91 0 0.0 0.0 0.00 0.00 0.00 60 1019.0
20260831193112 91 0 0.0 0.0 0.00 0.00 0.00 58 1019.1
20260831192523 91 0 0.0 0.0 0.00 0.00 0.00 61 1019.1
20260831192026 91 0 0.0 0.0 0.00 0.00 0.00 62 1019.1
20260831191544 91 0 0.0 0.0 0.00 0.00 0.00 64 1019.2
20260831191024 91 0 0.0 0.0 0.00 0.00 0.00 61 1019.3
20260831190523 91 0 0.0 0.0 0.00 0.00 0.00 59 1019.4
20260831190048 92 0 0.0 0.0 0.00 0.00 0.00 61 1019.5
20260831185525 91 0 0.0 0.0 0.00 0.00 0.00 59 1019.4
20260831185025 91 0 0.0 0.0 0.00 0.00 0.00 64 1019.6
20260831184542 91 0 0.0 0.0 0.00 0.00 0.00 61 1019.6
20260831184022 91 0 0.0 0.0 0.00 0.00 0.00 65 1019.7
20260831183524 89 0 0.0 0.0 0.00 0.00 0.00 63 1019.8
20260831183054 89 0 0.0 0.0 0.00 0.00 0.00 65 1019.9
20260831182527 90 0 0.0 0.0 0.00 0.00 0.00 63 1019.9
20260831182025 90 0 0.0 0.0 0.00 0.00 0.00 62 1020.0
20260831181552 90 0 0.0 0.0 0.00 0.00 0.00 64 1020.0
20260831181026 89 0 0.0 0.0 0.00 0.00 0.00 64 1020.0
20260831180525 89 0 0.0 0.0 0.00 0.00 0.00 63 1020.0
20260831180043 90 0 0.0 0.0 0.00 0.00 0.00 64 1020.1
20260831175525 90 0 0.0 0.0 0.00 0.00 0.00 62 1020.1
20260831175026 89 0 0.0 0.0 0.00 0.00 0.00 63 1020.2
20260831174543 89 0 0.0 0.0 0.00 0.00 0.00 65 1020.2
20260831174025 89 0 0.0 0.0 0.00 0.00 0.00 63 1020.3
20260831173525 89 0 0.0 0.0 0.00 0.00 0.00 66 1020.5
20260831173047 89 0 0.0 0.0 0.00 0.00 0.00 64 1020.5
20260831172524 89 0 0.0 0.0 0.00 0.00 0.00 64 1020.5
20260831172024 89 0 0.0 0.0 0.00 0.00 0.00 65 1020.7
20260831171542 88 0 0.0 0.0 0.00 0.00 0.00 64 1020.7
20260831171024 88 0 0.0 0.0 0.00 0.00 0.00 65 1020.6
20260831170526 88 0 0.0 0.0 0.00 0.00 0.00 65 1020.7
20260831170045 88 0 0.0 0.0 0.00 0.00 0.00 68 1020.7
20260831165523 88 0 0.0 0.0 0.00 0.00 0.00 68 1020.9
20260831165025 88 0 0.0 0.0 0.00 0.00 0.00 68 1020.9
20260831164602 88 0 0.0 0.0 0.00 0.00 0.00 70 1020.9
20260831164025 88 0 0.0 0.0 0.00 0.00 0.00 67 1021.0
20260831163525 88 0 0.0 0.0 0.00 0.00 0.00 67 1020.9
20260831163044 87 0 0.0 0.0 0.00 0.00 0.00 70 1021.0
20260831162525 86 0 0.0 0.0 0.00 0.00 0.00 72 1021.1
20260831162024 86 0 0.0 0.0 0.00 0.00 0.00 72 1021.0
20260831161559 87 0 0.0 0.0 0.00 0.00 0.00 71 1021.2
20260831161025 87 0 0.0 0.0 0.00 0.00 0.00 70 1021.1
20260831160525 87 0 0.0 0.0 0.00 0.00 0.00 72 1021.1
20260831160101 87 0 0.0 0.0 0.00 0.00 0.00 72 1021.1
20260831155524 86 0 0.0 0.0 0.00 0.00 0.00 74 1021.1
20260831155024 87 0 0.0 0.0 0.00 0.00 0.00 70 1021.0
20260831154613 87 0 0.0 0.0 0.00 0.00 0.00 70 1021.0
20260831154026 87 0 0.0 0.0 0.00 0.00 0.00 71 1021.0
20260831153522 87 0 0.0 0.0 0.00 0.00 0.00 73 1021.0
20260831153046 86 0 0.0 0.0 0.00 0.00 0.00 73 1021.0
20260831152530 85 0 0.0 0.0 0.00 0.00 0.00 79 1021.1
20260831152026 84 0 0.0 0.0 0.00 0.00 0.00 75 1021.2
20260831151546 84 0 0.0 0.0 0.00 0.00 0.00 77 1021.2
20260831151026 84 0 0.0 0.0 0.00 0.00 0.00 76 1021.1
20260831150524 84 0 0.0 0.0 0.00 0.00 0.00 75 1021.0
20260831150053 85 0 0.0 0.0 0.00 0.00 0.00 76 1021.0
20260831145519 84 0 0.0 0.0 0.00 0.00 0.00 76 1021.0
20260831145021 84 0 0.0 0.0 0.00 0.00 0.00 76 1021.0
20260831144543 86 0 0.0 0.0 0.00 0.00 0.00 73 1021.1
20260831144029 87 0 0.0 0.0 0.00 0.00 0.00 72 1021.1
20260831143526 88 0 0.0 0.0 0.00 0.00 0.00 71 1021.1
20260831143045 88 0 0.0 0.0 0.00 0.00 0.00 73 1021.0
20260831142527 87 0 0.0 0.0 0.00 0.00 0.00 75 1021.0
20260831142025 87 0 0.0 0.0 0.00 0.00 0.00 75 1021.0
20260831141546 86 0 0.0 0.0 0.00 0.00 0.00 75 1021.0
20260831141024 86 0 0.0 0.0 0.00 0.00 0.00 79 1021.0
20260831140525 85 0 0.0 0.0 0.00 0.00 0.00 82 1021.0
20260831140044 84 0 0.0 0.0 0.00 0.00 0.00 83 1021.0
20260831135524 83 0 0.0 0.0 0.00 0.00 0.00 83 1021.0
20260831135024 82 0 0.0 0.0 0.00 0.00 0.00 84 1020.9
20260831134552 81 0 0.0 0.0 0.00 0.00 0.00 88 1020.9
20260831134025 81 0 0.0 0.0 0.00 0.00 0.00 92 1020.9
20260831133527 80 0 0.0 0.0 0.00 0.00 0.00 93 1020.9
20260831133046 80 0 0.0 0.0 0.00 0.00 0.00 95 1020.8
20260831132524 79 0 0.0 0.0 0.00 0.00 0.00 96 1020.9
20260831132025 79 0 0.0 0.0 0.00 0.00 0.00 96 1021.1
20260831131555 79 0 0.0 0.0 0.00 0.00 0.00 97 1021.0
20260831131025 78 0 0.0 0.0 0.00 0.00 0.00 97 1021.0
20260831130524 78 0 0.0 0.0 0.00 0.00 0.00 97 1021.0
20260831130047 77 0 0.0 0.0 0.00 0.00 0.00 97 1021.0
20260831125523 77 0 0.0 0.0 0.00 0.00 0.00 97 1020.9
20260831125025 76 0 0.0 0.0 0.00 0.00 0.00 97 1020.9
20260831124544 75 0 0.0 0.0 0.00 0.00 0.00 98 1020.9
20260831124025 74 0 0.0 0.0 0.00 0.00 0.00 97 1020.8
20260831123526 73 0 0.0 0.0 0.00 0.00 0.00 97 1020.7
20260831123046 73 0 0.0 0.0 0.00 0.00 0.00 96 1020.7
20260831122526 72 0 0.0 0.0 0.00 0.00 0.00 96 1020.7
20260831122025 72 0 0.0 0.0 0.00 0.00 0.00 96 1020.7
20260831121546 72 0 0.0 0.0 0.00 0.00 0.00 96 1020.6
20260831121024 72 0 0.0 0.0 0.00 0.00 0.00 96 1020.6
20260831120520 72 0 0.0 0.0 0.00 0.00 0.00 96 1020.6
20260831120043 72 0 0.0 0.0 0.00 0.00 0.00 95 1020.6
20260831115528 71 0 0.0 0.0 0.00 0.00 0.00 95 1020.5
20260831115025 71 0 0.0 0.0 0.00 0.00 0.00 95 1020.6
20260831114544 71 0 0.0 0.0 0.00 0.00 0.00 95 1020.6
20260831114025 71 0 0.0 0.0 0.00 0.00 0.00 95 1020.7
20260831113524 71 0 0.0 0.0 0.00 0.00 0.00 95 1020.6
20260831113046 71 0 0.0 0.0 0.00 0.00 0.00 95 1020.7
20260831112524 71 0 0.0 0.0 0.00 0.00 0.00 95 1020.7
20260831112024 71 0 0.0 0.0 0.00 0.00 0.00 95 1020.6
20260831111551 71 0 0.0 0.0 0.00 0.00 0.00 95 1020.6
20260831111024 71 0 0.0 0.0 0.00 0.00 0.00 95 1020.5
20260831110523 71 0 0.0 0.0 0.00 0.00 0.00 95 1020.4
20260831110044 71 0 0.0 0.0 0.00 0.00 0.00 95 1020.3
20260831105523 71 0 0.0 0.0 0.00 0.00 0.00 95 1020.3
20260831105024 71 0 0.0 0.0 0.00 0.00 0.00 94 1020.2
20260831104540 71 0 0.0 0.0 0.00 0.00 0.00 94 1020.3
20260831104026 71 0 0.0 0.0 0.00 0.00 0.00 94 1020.2
20260831103523 71 0 0.0 0.0 0.00 0.00 0.00 94 1020.2
20260831103044 71 0 0.0 0.0 0.00 0.00 0.00 94 1020.2
20260831102518 71 0 0.0 0.0 0.00 0.00 0.00 94 1020.2
20260831102025 71 0 0.0 0.0 0.00 0.00 0.00 94 1020.2
20260831101546 71 0 0.0 0.0 0.00 0.00 0.00 94 1020.2
20260831101023 72 0 0.0 0.0 0.00 0.00 0.00 94 1020.1
20260831100523 72 0 0.0 0.0 0.00 0.00 0.00 94 1020.2
20260831100103 72 0 0.0 0.0 0.00 0.00 0.00 94 1020.3
20260831095525 72 0 0.0 0.0 0.00 0.00 0.00 94 1020.2
20260831095028 72 0 0.0 0.0 0.00 0.00 0.00 94 1020.3
20260831094547 72 0 0.0 0.0 0.00 0.00 0.00 94 1020.4
20260831094025 72 0 0.0 0.0 0.00 0.00 0.00 94 1020.3
20260831093525 72 0 0.0 0.0 0.00 0.00 0.00 94 1020.4
20260831093052 72 0 0.0 0.0 0.00 0.00 0.00 94 1020.4
20260831092523 72 0 0.0 0.0 0.00 0.00 0.00 94 1020.4
20260831092024 72 0 0.0 0.0 0.00 0.00 0.00 93 1020.2
20260831091543 72 0 0.0 0.0 0.00 0.00 0.00 93 1020.1
20260831091029 72 0 0.0 0.0 0.00 0.00 0.00 93 1020.2
20260831090521 72 0 0.0 0.0 0.00 0.00 0.00 93 1020.2
20260831090052 72 0 0.0 0.0 0.00 0.00 0.00 93 1020.3
20260831085524 72 0 0.0 0.0 0.00 0.00 0.00 93 1020.1
20260831085025 72 0 0.0 0.0 0.00 0.00 0.00 93 1020.1
20260831084544 72 0 0.0 0.0 0.00 0.00 0.00 93 1020.1
20260831084021 72 0 0.0 0.0 0.00 0.00 0.00 93 1020.0
20260831083518 72 0 0.0 0.0 0.00 0.00 0.00 93 1020.1
20260831083102 72 0 0.0 0.0 0.00 0.00 0.00 93 1020.0
20260831082524 72 0 0.0 0.0 0.00 0.00 0.00 93 1019.9
20260831082023 72 0 0.0 0.0 0.00 0.00 0.00 93 1019.9
20260831081554 72 0 0.0 0.0 0.00 0.00 0.00 93 1019.9
20260831081027 72 0 0.0 0.0 0.00 0.00 0.00 93 1019.9
20260831080523 72 0 0.0 0.0 0.00 0.00 0.00 93 1019.8
20260831080114 72 0 0.0 0.0 0.00 0.00 0.00 93 1019.8
20260831075525 73 0 0.0 0.0 0.00 0.00 0.00 93 1019.9
20260831075024 73 0 0.0 0.0 0.00 0.00 0.00 93 1019.8
20260831074545 73 0 0.0 0.0 0.00 0.00 0.00 93 1019.7
20260831074019 73 0 0.0 0.0 0.00 0.00 0.00 93 1019.8
20260831073523 73 0 0.0 0.0 0.00 0.00 0.00 93 1019.8
20260831073051 73 0 0.0 0.0 0.00 0.00 0.00 93 1019.7
20260831072525 73 0 0.0 0.0 0.00 0.00 0.00 93 1019.8
20260831072025 73 0 0.0 0.0 0.00 0.00 0.00 93 1019.9
20260831071546 73 0 0.0 0.0 0.00 0.00 0.00 93 1019.8
20260831071024 73 0 0.0 0.0 0.00 0.00 0.00 93 1019.8
20260831070524 73 0 0.0 0.0 0.00 0.00 0.00 93 1019.9
20260831070051 73 0 0.0 0.0 0.00 0.00 0.00 93 1020.0
20260831065526 73 0 0.0 0.0 0.00 0.00 0.00 93 1020.0
20260831065022 74 0 0.0 0.0 0.00 0.00 0.00 93 1020.1
20260831064544 73 0 0.0 0.0 0.00 0.00 0.00 93 1020.1
20260831064023 73 0 0.0 0.0 0.00 0.00 0.00 92 1020.1
20260831063522 74 0 0.0 0.0 0.00 0.00 0.00 92 1020.2
20260831063046 74 0 0.0 0.0 0.00 0.00 0.00 92 1020.3
20260831062524 74 0 0.0 0.0 0.00 0.00 0.00 92 1020.3
20260831062024 74 0 0.0 0.0 0.00 0.00 0.00 92 1020.3
20260831061544 74 0 0.0 0.0 0.00 0.00 0.00 92 1020.2
20260831061024 74 0 0.0 0.0 0.00 0.00 0.00 92 1020.2
20260831060525 74 0 0.0 0.0 0.00 0.00 0.00 92 1020.3
20260831060053 74 0 0.0 0.0 0.00 0.00 0.00 92 1020.3
20260831055523 74 0 0.0 0.0 0.00 0.00 0.00 92 1020.3
20260831055024 74 0 0.0 0.0 0.00 0.00 0.00 92 1020.3
20260831054544 74 0 0.0 0.0 0.00 0.00 0.00 92 1020.3
20260831054025 74 0 0.0 0.0 0.00 0.00 0.00 92 1020.3
20260831053525 74 0 0.0 0.0 0.00 0.00 0.00 92 1020.3
20260831053123 74 0 0.0 0.0 0.00 0.00 0.00 92 1020.5
20260831052525 74 0 0.0 0.0 0.00 0.00 0.00 92 1020.5
20260831052023 74 0 0.0 0.0 0.00 0.00 0.00 92 1020.5
20260831051544 75 0 0.0 0.0 0.00 0.00 0.00 92 1020.5
20260831051021 75 0 0.0 0.0 0.00 0.00 0.00 91 1020.6
20260831050525 75 0 0.0 0.0 0.00 0.00 0.00 91 1020.6
20260831050045 75 0 0.0 0.0 0.00 0.00 0.00 91 1020.7
20260831045522 75 0 0.0 0.0 0.00 0.00 0.00 91 1020.6
20260831045028 75 0 0.0 0.0 0.00 0.00 0.00 91 1020.5
20260831044635 75 0 0.0 0.0 0.00 0.00 0.00 91 1020.6
20260831044023 75 0 0.0 0.0 0.00 0.00 0.00 91 1020.6
20260831043524 75 0 0.0 0.0 0.00 0.00 0.00 91 1020.6
20260831043048 75 0 0.0 0.0 0.00 0.00 0.00 91 1020.6
20260831042519 75 0 0.0 0.0 0.00 0.00 0.00 91 1020.6
20260831042019 75 0 0.0 0.0 0.00 0.00 0.00 91 1020.5
20260831041544 76 0 0.0 0.0 0.00 0.00 0.00 91 1020.5
20260831041024 75 0 0.0 0.0 0.00 0.00 0.00 91 1020.5
20260831040524 75 0 0.0 0.0 0.00 0.00 0.00 90 1020.5
20260831040044 76 0 0.0 0.0 0.00 0.00 0.00 90 1020.6
20260831035524 76 0 0.0 0.0 0.00 0.00 0.00 90 1020.6
20260831035024 76 0 0.0 0.0 0.00 0.00 0.00 90 1020.7
20260831034545 76 0 0.0 0.0 0.00 0.00 0.00 90 1020.7
20260831034024 76 0 0.0 0.0 0.00 0.00 0.00 90 1020.7
20260831033523 76 0 0.0 0.0 0.00 0.00 0.00 90 1020.8
20260831033054 76 0 0.0 0.0 0.00 0.00 0.00 90 1020.8
20260831032525 76 0 0.0 0.0 0.00 0.00 0.00 89 1020.8
20260831032025 76 0 0.0 0.0 0.00 0.00 0.00 89 1020.8
20260831031544 76 0 0.0 0.0 0.00 0.00 0.00 89 1020.9
20260831031019 76 0 0.0 0.0 0.00 0.00 0.00 89 1020.7
20260831030525 76 0 0.0 0.0 0.00 0.00 0.00 89 1020.7
20260831030043 76 0 0.0 0.0 0.00 0.00 0.00 89 1020.6
20260831025525 77 0 0.0 0.0 0.00 0.00 0.00 88 1020.6
20260831025026 77 0 0.0 0.0 0.00 0.00 0.00 88 1020.6
20260831024542 77 0 0.0 0.0 0.00 0.00 0.00 88 1020.6
20260831024024 77 0 0.0 0.0 0.00 0.00 0.00 88 1020.5
20260831023518 77 0 0.0 0.0 0.00 0.00 0.00 88 1020.6
20260831023045 77 0 0.0 0.0 0.00 0.00 0.00 88 1020.6
20260831022518 77 0 0.0 0.0 0.00 0.00 0.00 88 1020.6
20260831022025 77 0 0.0 0.0 0.00 0.00 0.00 88 1020.6
20260831021543 77 0 0.0 0.0 0.00 0.00 0.00 87 1020.6
20260831021019 78 0 0.0 0.0 0.00 0.00 0.00 87 1020.5
20260831020523 78 0 0.0 0.0 0.00 0.00 0.00 87 1020.5
20260831020044 78 0 0.0 0.0 0.00 0.00 0.00 87 1020.5
20260831015520 78 0 0.0 0.0 0.00 0.00 0.00 87 1020.5
20260831015024 78 0 0.0 0.0 0.00 0.00 0.00 86 1020.5
20260831014546 78 0 0.0 0.0 0.00 0.00 0.00 86 1020.4
20260831014025 78 0 0.0 0.0 0.00 0.00 0.00 86 1020.5
20260831013519 79 0 0.0 0.0 0.00 0.00 0.00 85 1020.5
20260831013046 79 0 0.0 0.0 0.00 0.00 0.00 85 1020.4
20260831012523 79 0 0.0 0.0 0.00 0.00 0.00 85 1020.4
20260831012021 79 0 0.0 0.0 0.00 0.00 0.00 84 1020.3
20260831011552 79 0 0.0 0.0 0.00 0.00 0.00 84 1020.3
20260831011024 79 0 0.0 0.0 0.00 0.00 0.00 83 1020.3
20260831010518 79 0 0.0 0.0 0.00 0.00 0.00 83 1020.3
20260831010058 80 0 0.0 0.0 0.00 0.00 0.00 83 1020.3
20260831005524 80 0 0.0 0.0 0.00 0.00 0.00 82 1020.2
20260831005026 80 0 0.0 0.0 0.00 0.00 0.00 82 1020.2
20260831004544 80 0 0.0 0.0 0.00 0.00 0.00 81 1020.2
20260831004021 81 0 0.0 0.0 0.00 0.00 0.00 81 1020.2
20260831003522 81 0 0.0 0.0 0.00 0.00 0.00 81 1020.1
20260831003044 81 0 0.0 0.0 0.00 0.00 0.00 80 1020.2
20260831002524 81 0 0.0 0.0 0.00 0.00 0.00 80 1020.1
20260831002024 81 0 0.0 0.0 0.00 0.00 0.00 80 1020.1
20260831001543 82 0 0.0 0.0 0.00 0.00 0.00 79 1020.1
20260831001024 82 0 0.0 0.0 0.00 0.00 0.00 78 1020.0
20260831000524 82 0 0.0 0.0 0.00 0.00 0.00 78 1020.0
20260831000048 82 0 0.0 0.0 0.00 0.00 0.00 77 1019.9
20260830235518 83 0 0.0 0.0 0.00 0.00 0.00 77 1019.8
20260830235021 83 0 0.0 0.0 0.00 0.00 0.00 76 1019.8
20260830234544 83 0 0.0 0.0 0.00 0.00 0.00 76 1019.7
20260830234019 84 0 0.0 0.0 0.00 0.00 0.00 76 1019.7
20260830233519 84 0 0.0 0.0 0.00 0.00 0.00 75 1019.8
20260830233044 84 0 0.0 0.0 0.00 0.00 0.00 75 1019.7
20260830232524 84 0 0.0 0.0 0.00 0.00 0.00 75 1019.7
20260830232024 84 0 0.0 0.0 0.00 0.00 0.00 75 1019.7
20260830231549 84 0 0.0 0.0 0.00 0.00 0.00 74 1019.7